Statesville, NC

5:45 AM EST on January 22, 2018 (GMT -0500)
Statesville Municipal

Weather History for KSVH - March, 2014

Change the Weather History Date:

Wednesday, March 5, 2014

  Actual Average (KHKY) Record (KHKY)
Temperature  
Mean Temperature 39 °F -  
Max Temperature 52 °F 60 °F 82 °F (1955)
Min Temperature 26 °F 37 °F 10 °F (1960)
Degree Days  
Heating Degree Days 26    
Moisture  
Dew Point 21 °F    
Average Humidity 52    
Maximum Humidity 75    
Minimum Humidity 31    
Precipitation  
Precipitation 0.00 in - - ()
Sea Level Pressure  
Sea Level Pressure 30.16 in    
Wind  
Wind Speed 1 mph (NE)    
Max Wind Speed 8 mph    
Max Gust Speed -    
Visibility 10 miles    
Events      
Averages and records for this station are not official NWS values.
T = Trace of Precipitation, MM = Missing Value Source: NWS Daily Summary

Daily Weather History Graph

Daily Weather History Graph

Search for Another Location

Airport or City:

Trip Planner

Search our weather history database for the weather conditions in past years. The results will help you decide how hot, cold, wet, or windy it might be!

Date:

Astronomy

Mar. 05, 2014 Rise Set
Actual Time 6:48 AM EST 6:22 PM EST
Civil Twilight 6:22 AM EST 6:48 PM EST
Nautical Twilight 5:53 AM EST 7:17 PM EST
Astronomical Twilight 5:23 AM EST 7:47 PM EST
Moon 9:23 AM EST (3/5) 11:18 PM EST (3/5)
Length of Visible Light 12h 25m
Length of Day
11h 34m
Waxing Crescent, 23% of the Moon is Illuminated
Mar 5
Waxing Crescent
Mar 8
First Quarter
Mar 16
Full
Mar 23
Last Quarter
Mar 30
New

Hourly Weather History & Observations

Time (EST) Temp. Windchill Dew Point Humidity Pressure Visibility Wind Dir Wind Speed Gust Speed Precip Events Conditions
12:15 AM 30.2 °F - 17.2 °F 59% 30.18 in 10.0 mi Calm Calm - N/A   Clear
12:35 AM 30.2 °F - 16.3 °F 56% 30.17 in 10.0 mi Calm Calm - N/A   Clear
12:55 AM 30.2 °F - 16.2 °F 56% 30.17 in 10.0 mi Calm Calm - N/A   Clear
1:15 AM 30.2 °F - 15.6 °F 55% 30.16 in 10.0 mi Calm Calm - N/A   Clear
1:35 AM 30.2 °F 24.3 °F 15.8 °F 55% 30.16 in 10.0 mi North 5.8 mph - N/A   Clear
1:55 AM 30.0 °F 25.2 °F 15.6 °F 55% 30.15 in 10.0 mi NNE 4.6 mph - N/A   Clear
2:15 AM 29.8 °F - 15.8 °F 56% 30.15 in 10.0 mi Calm Calm - N/A   Clear
2:35 AM 29.8 °F 26.3 °F 15.6 °F 56% 30.16 in 10.0 mi North 3.5 mph - N/A   Clear
2:55 AM 29.8 °F 26.3 °F 16.0 °F 56% 30.15 in 10.0 mi North 3.5 mph - N/A   Clear
3:15 AM 29.7 °F - 15.6 °F 56% 30.15 in 10.0 mi Calm Calm - N/A   Clear
3:35 AM 29.3 °F - 15.6 °F 57% 30.14 in 10.0 mi Calm Calm - N/A   Clear
3:55 AM 29.7 °F - 15.6 °F 56% 30.15 in 10.0 mi Calm Calm - N/A   Clear
4:15 AM 29.3 °F - 16.7 °F 59% 30.15 in 10.0 mi Calm Calm - N/A   Clear
4:30 AM 29.3 °F - 16.3 °F 58% 30.14 in 10.0 mi Calm Calm - N/A   Clear
4:55 AM 29.7 °F - 15.6 °F 56% 30.15 in 10.0 mi Calm Calm - N/A   Clear
5:15 AM 29.7 °F - 16.2 °F 57% 30.14 in 10.0 mi Calm Calm - N/A   Clear
5:35 AM 29.5 °F - 15.8 °F 57% 30.15 in 10.0 mi Calm Calm - N/A   Clear
5:55 AM 28.4 °F - 17.8 °F 64% 30.16 in 10.0 mi Calm Calm - N/A   Clear
6:15 AM 27.5 °F - 17.2 °F 65% 30.16 in 10.0 mi Calm Calm - N/A   Clear
6:35 AM 27.5 °F - 17.4 °F 66% 30.17 in 10.0 mi Calm Calm - N/A   Clear
6:55 AM 27.5 °F - 18.1 °F 68% 30.17 in 10.0 mi Calm Calm - N/A   Clear
7:15 AM 26.6 °F - 19.2 °F 74% 30.17 in 10.0 mi Calm Calm - N/A   Clear
7:35 AM 27.3 °F - 19.2 °F 72% 30.17 in 10.0 mi Calm Calm - N/A   Clear
7:55 AM 28.4 °F - 21.4 °F 75% 30.18 in 10.0 mi Calm Calm - N/A   Clear
8:15 AM 29.8 °F - 19.2 °F 65% 30.17 in 10.0 mi Calm Calm - N/A   Clear
8:35 AM 31.6 °F - 18.5 °F 58% 30.18 in 10.0 mi Calm Calm - N/A   Clear
8:55 AM 32.0 °F 28.7 °F 14.7 °F 49% 30.18 in 10.0 mi North 3.5 mph - N/A   Clear
9:15 AM 33.1 °F - 16.5 °F 51% 30.18 in 10.0 mi Calm Calm - N/A   Clear
9:35 AM 33.8 °F - 14.4 °F 45% 30.18 in 10.0 mi Calm Calm - N/A   Clear
9:55 AM 34.9 °F - 14.7 °F 44% 30.18 in 10.0 mi Calm Calm - N/A   Clear
10:15 AM 36.5 °F - 16.7 °F 45% 30.16 in 10.0 mi Calm Calm - N/A   Clear
10:35 AM 37.8 °F - 17.1 °F 43% 30.18 in 10.0 mi Calm Calm - N/A   Clear
10:55 AM 39.0 °F - 18.7 °F 44% 30.18 in 10.0 mi Calm Calm - N/A   Clear
11:15 AM 40.5 °F 38.4 °F 20.3 °F 45% 30.18 in 10.0 mi North 3.5 mph - N/A   Clear
11:35 AM 41.4 °F - 20.8 °F 44% 30.17 in 10.0 mi Calm Calm - N/A   Clear
11:55 AM 42.4 °F - 22.3 °F 45% 30.18 in 10.0 mi Calm Calm - N/A   Clear
12:15 PM 42.8 °F - 23.0 °F 46% 30.16 in 10.0 mi Calm Calm - N/A   Clear
12:35 PM 43.7 °F 41.1 °F 23.5 °F 45% 30.14 in 10.0 mi NE 4.6 mph - N/A   Clear
12:55 PM 45.1 °F 42.8 °F 25.7 °F 47% 30.14 in 10.0 mi East 4.6 mph - N/A   Clear
1:15 PM 45.3 °F - 25.2 °F 45% 30.12 in 10.0 mi Calm Calm - N/A   Clear
1:35 PM 45.9 °F - 26.1 °F 46% 30.12 in 10.0 mi Calm Calm - N/A   Clear
1:55 PM 47.3 °F - 26.4 °F 44% 30.11 in 10.0 mi NE 3.5 mph - N/A   Clear
2:15 PM 47.7 °F - 25.5 °F 42% 30.10 in 10.0 mi Calm Calm - N/A   Clear
2:35 PM 49.8 °F - 27.3 °F 42% 30.10 in 10.0 mi East 3.5 mph - N/A   Clear
2:55 PM 49.5 °F - 27.0 °F 42% 30.09 in 10.0 mi ENE 5.8 mph - N/A   Clear
3:15 PM 50.7 °F - 25.3 °F 37% 30.09 in 10.0 mi NNE 4.6 mph - N/A   Clear
3:35 PM 51.3 °F - 24.8 °F 36% 30.08 in 10.0 mi ENE 3.5 mph - N/A   Clear
3:55 PM 51.6 °F - 21.7 °F 31% 30.09 in 10.0 mi Calm Calm - N/A   Clear
4:15 PM 50.0 °F - 23.4 °F 35% 30.09 in 10.0 mi North 4.6 mph - N/A   Clear
4:35 PM 52.0 °F - 23.5 °F 33% 30.10 in 10.0 mi Calm Calm - N/A   Clear
4:55 PM 51.4 °F - 23.7 °F 34% 30.10 in 10.0 mi Calm Calm - N/A   Clear
5:15 PM 51.4 °F - 24.1 °F 34% 30.09 in 10.0 mi East 5.8 mph - N/A   Clear
5:35 PM 50.4 °F - 26.6 °F 40% 30.09 in 10.0 mi ESE 5.8 mph - N/A   Clear
5:55 PM 48.6 °F - 26.4 °F 42% 30.09 in 10.0 mi ENE 5.8 mph - N/A   Clear
6:15 PM 46.9 °F - 25.5 °F 43% 30.11 in 10.0 mi East 4.6 mph - N/A   Clear
6:35 PM 46.4 °F - 24.6 °F 42% 30.13 in 10.0 mi Calm Calm - N/A   Clear
6:55 PM 45.5 °F - 24.8 °F 44% 30.15 in 10.0 mi Calm Calm - N/A   Clear
7:15 PM 46.0 °F - 24.6 °F 43% 30.17 in 10.0 mi Calm Calm - N/A   Clear
7:35 PM 44.6 °F 43.1 °F 24.6 °F 45% 30.17 in 10.0 mi NNE 3.5 mph - N/A   Clear
7:55 PM 41.9 °F 39.0 °F 25.3 °F 52% 30.17 in 10.0 mi NE 4.6 mph - N/A   Clear
8:15 PM 42.1 °F 39.2 °F 25.3 °F 52% 30.18 in 10.0 mi ENE 4.6 mph - N/A   Clear
8:35 PM 37.6 °F - 25.5 °F 62% 30.19 in 10.0 mi Calm Calm - N/A   Clear
8:55 PM 39.6 °F 37.4 °F 25.7 °F 58% 30.20 in 10.0 mi East 3.5 mph - N/A   Clear
9:15 PM 39.6 °F - 25.5 °F 57% 30.21 in 10.0 mi Calm Calm - N/A   Clear
9:35 PM 39.2 °F 35.9 °F 25.5 °F 58% 30.21 in 10.0 mi East 4.6 mph - N/A   Clear
9:55 PM 38.3 °F 35.9 °F 25.5 °F 60% 30.22 in 10.0 mi East 3.5 mph - N/A   Clear
10:15 PM 36.5 °F - 25.7 °F 65% 30.24 in 10.0 mi Calm Calm - N/A   Clear
10:35 PM 36.5 °F 31.8 °F 25.5 °F 64% 30.24 in 10.0 mi ENE 5.8 mph - N/A   Clear
10:55 PM 36.9 °F 32.2 °F 24.3 °F 60% 30.24 in 10.0 mi ENE 5.8 mph - N/A   Clear
11:15 PM 36.3 °F 30.8 °F 23.9 °F 61% 30.24 in 10.0 mi ENE 6.9 mph - N/A   Clear
11:35 PM 36.5 °F 31.8 °F 23.5 °F 59% 30.24 in 10.0 mi NE 5.8 mph - N/A   Clear
11:55 PM 35.6 °F 29.2 °F 22.8 °F 60% 30.24 in 10.0 mi NE 8.1 mph - N/A   Clear